Meadow Lake, CO

2:19 AM MDT on April 21, 2018 (GMT -0600)
Meadow Lake

Weather History for KFLY - January, 2013

Change the Weather History Date:

Tuesday, January 15, 2013

  Actual Average (KCOS) Record (KCOS)
Temperature  
Mean Temperature 12 °F -  
Max Temperature 28 °F 45 °F 68 °F (1974)
Min Temperature -5 °F 18 °F -14 °F (1984)
Degree Days  
Heating Degree Days 54    
Moisture  
Dew Point 2 °F    
Average Humidity 57    
Maximum Humidity 87    
Minimum Humidity 29    
Precipitation  
Precipitation 0.00 in - - ()
Sea Level Pressure  
Sea Level Pressure 30.01 in    
Wind  
Wind Speed 7 mph (NW)    
Max Wind Speed 16 mph    
Max Gust Speed 21 mph    
Visibility 10 miles    
Events Snow    
Averages and records for this station are not official NWS values.
T = Trace of Precipitation, MM = Missing Value Source: NWS Daily Summary

Daily Weather History Graph

Daily Weather History Graph

Search for Another Location

Airport or City:

Astronomy

Jan. 15, 2013 Rise Set
Actual Time 7:15 AM MST 5:00 PM MST
Civil Twilight 6:46 AM MST 5:29 PM MST
Nautical Twilight 6:13 AM MST 6:02 PM MST
Astronomical Twilight 5:41 AM MST 6:34 PM MST
Moon 9:25 AM MST (1/15) 9:49 PM MST (1/15)
Length of Visible Light 10h 43m
Length of Day
9h 45m
Waxing Crescent, 20% of the Moon is Illuminated
Jan 15
Waxing Crescent
Jan 18
First Quarter
Jan 26
Full
Feb 3
Last Quarter
Feb 10
New

Hourly Weather History & Observations

Time (MST) Temp. Windchill Dew Point Humidity Pressure Visibility Wind Dir Wind Speed Gust Speed Precip Events Conditions
12:14 AM -2.7 °F -14.8 °F -6.5 °F 84% 29.93 in 10.0 mi West 5.8 mph - N/A   Clear
12:34 AM -3.3 °F -15.4 °F -6.7 °F 85% 29.93 in 10.0 mi WNW 5.8 mph - N/A   Clear
12:54 AM -3.8 °F -16.1 °F -7.1 °F 86% 29.93 in 10.0 mi NW 5.8 mph - N/A   Clear
1:14 AM -4.4 °F -16.7 °F -8.0 °F 84% 29.93 in 10.0 mi WNW 5.8 mph - N/A   Clear
1:34 AM -5.3 °F -16.0 °F -8.9 °F 84% 29.93 in 10.0 mi West 4.6 mph - N/A   Clear
1:54 AM -2.7 °F -16.2 °F -5.6 °F 87% 29.94 in 10.0 mi NW 6.9 mph - N/A   Clear
2:14 AM -4.2 °F -16.5 °F -8.3 °F 82% 29.94 in 10.0 mi NW 5.8 mph - N/A   Clear
2:34 AM -2.7 °F -11.0 °F -6.9 °F 82% 29.94 in 10.0 mi NNW 3.5 mph - N/A   Clear
2:54 AM -2.2 °F -10.4 °F -6.9 °F 80% 29.94 in 10.0 mi NW 3.5 mph - N/A   Clear
3:14 AM -2.4 °F - -8.1 °F 76% 29.94 in 10.0 mi Calm Calm - N/A   Clear
3:54 AM 5.0 °F -9.1 °F -4.7 °F 64% 29.94 in 10.0 mi North 9.2 mph - N/A   Clear
4:14 AM 3.9 °F -9.4 °F -6.2 °F 63% 29.94 in 10.0 mi North 8.1 mph - N/A   Clear
4:34 AM 2.7 °F -9.7 °F -7.6 °F 62% 29.95 in 10.0 mi NNW 6.9 mph - N/A   Clear
4:54 AM -0.6 °F -12.2 °F -8.7 °F 69% 29.95 in 10.0 mi NNW 5.8 mph - N/A   Clear
5:14 AM -2.0 °F -13.9 °F -11.2 °F 65% 29.95 in 10.0 mi NW 5.8 mph - N/A   Clear
5:34 AM 1.6 °F -11.0 °F -9.2 °F 61% 29.95 in 10.0 mi NNW 6.9 mph - N/A   Clear
5:54 AM 4.8 °F -8.3 °F -8.5 °F 54% 29.95 in 10.0 mi NNW 8.1 mph - N/A   Clear
6:14 AM 4.1 °F -11.1 °F -8.7 °F 56% 29.96 in 10.0 mi NNW 10.4 mph - N/A   Clear
6:34 AM 5.7 °F -7.2 °F -10.3 °F 48% 29.96 in 10.0 mi NNW 8.1 mph - N/A   Clear
6:54 AM 4.5 °F -9.8 °F -10.3 °F 51% 29.97 in 10.0 mi NW 9.2 mph - N/A   Clear
7:14 AM 3.2 °F -10.3 °F -10.1 °F 54% 29.97 in 10.0 mi NW 8.1 mph - N/A   Clear
7:34 AM 3.0 °F -10.5 °F -9.9 °F 55% 29.99 in 10.0 mi NNW 8.1 mph - N/A   Scattered Clouds
7:54 AM 10.4 °F -1.5 °F -9.0 °F 41% 29.99 in 10.0 mi NNW 8.1 mph - N/A   Mostly Cloudy
8:14 AM 11.5 °F 0.9 °F -9.2 °F 39% 30.00 in 10.0 mi NNW 6.9 mph - N/A   Mostly Cloudy
8:34 AM 14.4 °F 6.9 °F -4.5 °F 43% 30.01 in 10.0 mi NNW 4.6 mph - N/A   Overcast
8:54 AM 17.6 °F 8.2 °F -5.4 °F 36% 30.01 in 10.0 mi NW 6.9 mph - N/A   Overcast
9:14 AM 18.1 °F 10.0 °F -6.0 °F 34% 30.01 in 10.0 mi NW 5.8 mph - N/A   Overcast
9:34 AM 18.7 °F 13.5 °F -7.4 °F 31% 30.01 in 10.0 mi NW 3.5 mph - N/A   Overcast
9:54 AM 21.0 °F 13.4 °F -6.0 °F 30% 30.01 in 10.0 mi West 5.8 mph - N/A   Overcast
10:14 AM 22.1 °F 15.9 °F -5.3 °F 30% 30.03 in 10.0 mi West 4.6 mph - N/A   Overcast
10:34 AM 21.9 °F 17.2 °F -5.3 °F 30% 30.02 in 10.0 mi WSW 3.5 mph - N/A   Overcast
10:54 AM 23.5 °F 16.4 °F -4.7 °F 29% 30.01 in 10.0 mi North 5.8 mph - N/A   Overcast
11:14 AM 24.1 °F 17.0 °F -3.3 °F 30% 30.01 in 10.0 mi North 5.8 mph - N/A   Overcast
11:34 AM 24.4 °F 15.6 °F -0.0 °F 35% 30.00 in 10.0 mi North 8.1 mph - N/A   Overcast
11:54 AM 24.3 °F 14.6 °F 1.4 °F 37% 30.00 in 10.0 mi North 9.2 mph 16.1 mph N/A   Overcast
12:14 PM 24.4 °F 15.6 °F 1.0 °F 36% 30.00 in 10.0 mi NNW 8.1 mph - N/A   Overcast
12:34 PM 24.4 °F 14.9 °F 1.4 °F 37% 29.99 in 10.0 mi North 9.2 mph - N/A   Overcast
12:54 PM 24.8 °F 14.6 °F 4.1 °F 41% 29.99 in 10.0 mi North 10.4 mph 17.3 mph N/A   Overcast
1:14 PM 24.4 °F 13.5 °F 6.1 °F 46% 29.99 in 10.0 mi North 11.5 mph 20.7 mph N/A   Overcast
1:34 PM 24.8 °F 14.0 °F 6.8 °F 46% 30.00 in 10.0 mi North 11.5 mph 20.7 mph N/A   Overcast
1:54 PM 25.0 °F 13.6 °F 6.6 °F 46% 30.00 in 10.0 mi North 12.7 mph 18.4 mph N/A   Overcast
2:14 PM 25.9 °F 14.8 °F 7.3 °F 46% 30.00 in 10.0 mi North 12.7 mph 18.4 mph N/A   Overcast
2:34 PM 26.1 °F 15.0 °F 7.7 °F 46% 30.01 in 10.0 mi North 12.7 mph 18.4 mph N/A   Overcast
2:54 PM 26.4 °F 14.0 °F 7.5 °F 45% 30.01 in 10.0 mi North 16.1 mph 20.7 mph N/A   Overcast
3:14 PM 27.1 °F 16.9 °F 7.5 °F 44% 30.02 in 10.0 mi North 11.5 mph 18.4 mph N/A   Overcast
3:34 PM 27.0 °F 18.7 °F 7.7 °F 44% 30.03 in 10.0 mi NNW 8.1 mph 16.1 mph N/A   Overcast
3:54 PM 26.6 °F 17.5 °F 7.7 °F 45% 30.03 in 10.0 mi NNW 9.2 mph - N/A   Overcast
4:14 PM 26.6 °F 19.1 °F 7.7 °F 45% 30.03 in 10.0 mi NNW 6.9 mph - N/A   Overcast
4:34 PM 26.6 °F 17.5 °F 7.7 °F 45% 30.03 in 10.0 mi NW 9.2 mph - N/A   Overcast
4:54 PM 25.2 °F 16.5 °F 7.7 °F 48% 30.04 in 10.0 mi NW 8.1 mph - N/A   Overcast
5:14 PM 23.2 °F 13.3 °F 7.7 °F 52% 30.05 in 10.0 mi WNW 9.2 mph - N/A   Scattered Clouds
5:34 PM 23.4 °F 13.5 °F 13.6 °F 66% 30.05 in 7.0 mi NW 9.2 mph - N/A Snow Light Snow
5:54 PM 22.1 °F 14.7 °F 14.7 °F 73% 30.05 in 10.0 mi WNW 5.8 mph - N/A Snow Light Snow
6:14 PM 22.6 °F 12.6 °F 14.5 °F 71% 30.05 in 10.0 mi West 9.2 mph - N/A   Overcast
6:34 PM 22.8 °F 12.9 °F 14.4 °F 70% 30.06 in 10.0 mi West 9.2 mph - N/A   Overcast
6:54 PM 23.5 °F 14.5 °F 14.9 °F 70% 30.06 in 10.0 mi WNW 8.1 mph - N/A   Overcast
7:14 PM 22.5 °F 13.2 °F 14.0 °F 70% 30.07 in 10.0 mi WNW 8.1 mph - N/A   Mostly Cloudy
7:34 PM 22.3 °F 13.0 °F 14.4 °F 72% 30.07 in 10.0 mi West 8.1 mph - N/A   Overcast
7:54 PM 22.8 °F 13.6 °F 13.3 °F 67% 30.08 in 10.0 mi West 8.1 mph - N/A   Mostly Cloudy
8:14 PM 24.6 °F 15.1 °F 13.1 °F 62% 30.07 in 10.0 mi West 9.2 mph - N/A   Overcast
8:34 PM 24.8 °F 17.9 °F 13.6 °F 63% 30.08 in 10.0 mi West 5.8 mph - N/A   Overcast
8:54 PM 23.9 °F 19.5 °F 13.1 °F 63% 30.07 in 10.0 mi West 3.5 mph - N/A   Overcast
9:14 PM 26.2 °F 17.8 °F 16.0 °F 65% 30.07 in 10.0 mi NW 8.1 mph - N/A   Overcast
9:34 PM 26.6 °F 20.0 °F 18.5 °F 71% 30.08 in 10.0 mi NW 5.8 mph - N/A   Overcast
9:54 PM 27.1 °F 18.9 °F 17.8 °F 68% 30.06 in 10.0 mi WNW 8.1 mph - N/A   Overcast
10:14 PM 24.3 °F 15.4 °F 16.7 °F 73% 30.06 in 10.0 mi WNW 8.1 mph - N/A   Mostly Cloudy
10:34 PM 22.6 °F 13.4 °F 15.3 °F 73% 30.08 in 10.0 mi West 8.1 mph - N/A   Scattered Clouds
11:14 PM 28.0 °F 19.3 °F 19.4 °F 70% 30.09 in 10.0 mi North 9.2 mph 17.3 mph N/A   Overcast
11:34 PM 27.5 °F 21.1 °F 18.5 °F 69% 30.09 in 10.0 mi NNW 5.8 mph - N/A   Mostly Cloudy
11:54 PM 28.2 °F 21.0 °F 16.5 °F 62% 30.09 in 10.0 mi NNW 6.9 mph - N/A   Overcast